Location: Vancouver
(49.2500°N, 123.1330°W)
Time: 23:04:59
(UTC-07:00)

Transit 2A Rocket - Visible Passes

Search period start: 16 August 2017 00:00
Search period end: 26 August 2017 00:00
Orbit: 588 x 916 km, 66.7° (Epoch: 16 August)

Date Brightness Start Highest point End Pass type
(mag) Time Alt. Az. Time Alt. Az. Time Alt. Az.
23 Aug 7.1 05:23:55 10° SSE 05:27:36 22° ESE 05:31:32 10° ENE visible
24 Aug 7.5 04:43:22 10° SE 04:45:37 13° ESE 04:47:57 10° ENE visible
25 Aug 5.7 05:40:16 10° SSW 05:44:53 51° ESE 05:50:01 10° NE visible
